STARLINK-35362, 65888

Orbit data source: Space-Track

STARLINK-35362, 65888 is a payload satellite owned by SpaceX/Seattle (US) in LEO that was launched on Tue, 07 Oct 2025 UTC via an FALCON 9 launch vehicle from the Air Force Eastern Test Range (AFETR). Payload-class satellites include a variety of spacecraft equipped with specific instruments for various scientific and technological missions. These include communications satellites like Starlink; space stations such as the ISS; scientific satellites like the Hubble; Earth observation satellites from companies like Planet Labs, Umbra, and HawkEye 360; GPS; miniature CubeSats for education and research; and military/defense satellites.

Loading next visibility...
Identifier
65888, 2025-224G
Orbit
LEO
Country
Flag of USUS
Related business
Manufacturer
SpaceX/Seattle
Mission
Operational spacecraft
Bus & Motor
STARLINK V2MO, Unknown motor
Mass
575 kg wet, ~530 kg dry
Launch date (UTC)
2025-10-07 (2 months ago)
Launch vehicle
FALCON 9
Launch site
Air Force Eastern Test Range (AFETR)
Object type
Payload
Rocket body
Debris
Shape & HBR
Unknown shape, 17.7 m
Radar Cross Section
RCS unknown

Expand to show TLE details & history
Last TLE update: 16 hours ago

TLE from 16 hours ago
0 STARLINK-35362
1 65888U 25224G   25340.56169387  .00042179  00000-0  14266-2 0  9993
2 65888  53.1623  84.0892 0001346  83.8288 276.2866 15.30235467 10564
Epoch: 2025-12-06T13:28Z
TLE epoch observation values (Epoch: 2025-12-06T13:28:50.350Z)
Latitude
-0.00003°
Longitude
166.29173°
Altitude
475.908 km
Speed
7.629 km/s
True Right ascension
05h 36m 21s
True Declination
0° 00' 00"
Sunlit
Object was in full shadow at epoch
Visualization orbit readout
Latitude
Unknown
Longitude
Unknown
Altitude
Unknown
Speed
Unknown
Apparent Right ascension
Unknown
Apparent Declination
Unknown
Sunlit
N/A
Visualization observer readout
Local Sidereal Time
03:11:25
Azimuth
Unknown
Elevation
Unknown
Doppler factor
Unknown
Orbital elements
Apogee altitude
476.288 km
Perigee altitude
474.443 km
Semi-major axis
6,853.502 km
Eccentricity
0.00013
Inclination
53.1623°
RAAN
84.0892°
Arg. of periapsis
83.8288°
True anomaly
276.27127°
Mean anomaly
276.2866°
Eccentric anomaly
276.27893°
Mean motion
3.82538 °/min
Orbital period
94.11 mins
BSTAR
0.0014266
Loading maneuver chart data...
Computing Atmospheric mass density...
Loading historical data...
Loading historical data...
Loading historical data...
Loading historical data...
Loading historical data...
Loading historical data...
Loading historical data...

Documentation

Showing up to 5 results
|